Weather History for North Adams, MA

Change the Weather History Date:

Monday, August 12, 2013

  Actual Average Record
Temperature  
Mean Temperature 64 °F -  
Max Temperature 79 °F 78 °F 89 °F (2002)
Min Temperature 51 °F 57 °F 44 °F (2006)
Growing Degree Days 14 (Base 50)    
Moisture  
Dew Point 54 °F    
Average Humidity 78    
Maximum Humidity 100    
Minimum Humidity 40    
Precipitation  
Precipitation 0.01 in - - ()
Sea Level Pressure  
Sea Level Pressure 30.01 in    
Wind  
Wind Speed 1 mph (ENE)    
Max Wind Speed 6 mph    
Max Gust Speed -    
Visibility 9 miles    
Events      
Averages and records for this station are not official NWS values.
T = Trace of Precipitation, MM = Missing Value Source: NWS Daily Summary

Daily Weather History Graph

Daily Weather History Graph

Search for Another Location

Airport:

Trip Planner

Search our weather history database for the weather conditions in past years. The results will help you decide how hot, cold, wet, or windy it might be!

Date:

Astronomy

Aug. 12, 2013 Rise Set
Actual Time 5:56 AM EDT 7:58 PM EDT
Civil Twilight 5:25 AM EDT 8:29 PM EDT
Nautical Twilight 4:47 AM EDT 9:06 PM EDT
Astronomical Twilight 4:06 AM EDT 9:47 PM EDT
Moon 11:53 AM EDT (8/12) 10:39 PM EDT (8/12)
Length of Visible Light 15h 03m
Length of Day
14h 02m
Waxing Crescent, 31% of the Moon is Illuminated
Aug 12
Waxing Crescent
Aug 14
First Quarter
Aug 20
Full
Aug 28
Last Quarter
Sep 5
New

Hourly Weather History & Observations

Time (EDT) Temp. Dew Point Humidity Pressure Visibility Wind Dir Wind Speed Gust Speed Precip Events Conditions
12:52 AM 54.0 °F 52.0 °F 93% 30.06 in 10.0 mi Calm Calm - N/A   Clear
1:52 AM 53.1 °F 52.0 °F 96% 30.06 in 10.0 mi Calm Calm - N/A   Clear
2:52 AM 54.0 °F 53.1 °F 97% 30.05 in 10.0 mi Calm Calm - N/A   Clear
3:52 AM 53.1 °F 52.0 °F 96% 30.05 in 9.0 mi Calm Calm - N/A   Clear
4:52 AM 53.1 °F 52.0 °F 96% 30.05 in 10.0 mi Calm Calm - N/A   Clear
5:52 AM 53.1 °F 51.1 °F 93% 30.06 in 9.0 mi Calm Calm - N/A   Scattered Clouds
6:07 AM 51.8 °F 50.0 °F 94% 30.06 in 1.8 mi Calm Calm - N/A   Partly Cloudy
6:17 AM 51.8 °F 51.8 °F 100% 30.06 in 3.0 mi Calm Calm - N/A   Clear
6:52 AM 53.1 °F 52.0 °F 96% 30.06 in 10.0 mi Calm Calm - 0.01 in   Clear
7:19 AM 55.4 °F 53.6 °F 94% 30.06 in 10.0 mi Calm Calm - N/A   Scattered Clouds
7:39 AM 55.4 °F 55.4 °F 100% 30.06 in 10.0 mi East 4.6 mph - N/A   Mostly Cloudy
7:52 AM 55.9 °F 55.0 °F 97% 30.07 in 10.0 mi East 4.6 mph - N/A   Mostly Cloudy
8:18 AM 57.2 °F 55.4 °F 94% 30.06 in 10.0 mi ESE 4.6 mph - N/A   Partly Cloudy
8:52 AM 61.0 °F 55.0 °F 81% 30.05 in 10.0 mi Calm Calm - N/A   Clear
9:52 AM 66.9 °F 53.1 °F 61% 30.04 in 10.0 mi Calm Calm - N/A   Clear
10:52 AM 72.0 °F 51.1 °F 48% 30.03 in 10.0 mi North 3.5 mph - N/A   Partly Cloudy
11:52 AM 73.0 °F 51.1 °F 46% 30.01 in 10.0 mi Calm Calm - N/A   Clear
12:52 PM 75.0 °F 53.1 °F 46% 30.00 in 10.0 mi Calm Calm - N/A   Scattered Clouds
1:52 PM 77.0 °F 53.1 °F 43% 29.99 in 10.0 mi Variable 5.8 mph - N/A   Scattered Clouds
2:52 PM 78.1 °F 52.0 °F 40% 29.98 in 10.0 mi Variable 3.5 mph - N/A   Overcast
3:52 PM 75.9 °F 52.0 °F 43% 29.97 in 10.0 mi Calm Calm - N/A   Mostly Cloudy
4:52 PM 75.0 °F 54.0 °F 48% 29.96 in 10.0 mi North 3.5 mph - N/A   Mostly Cloudy
5:52 PM 75.9 °F 55.0 °F 48% 29.95 in 10.0 mi Calm Calm - N/A   Mostly Cloudy
6:52 PM 72.0 °F 57.9 °F 61% 29.94 in 10.0 mi Calm Calm - N/A   Clear
7:52 PM 66.0 °F 62.1 °F 87% 29.95 in 10.0 mi Calm Calm - N/A   Clear
8:52 PM 64.0 °F 60.1 °F 87% 29.95 in 10.0 mi Calm Calm - N/A   Mostly Cloudy
9:52 PM 62.1 °F 59.0 °F 90% 29.96 in 10.0 mi Calm Calm - N/A   Clear
10:52 PM 63.0 °F 60.1 °F 90% 29.94 in 10.0 mi Calm Calm - N/A   Overcast
11:52 PM 64.0 °F 60.1 °F 87% 29.94 in 10.0 mi Calm Calm - N/A   Overcast